User: anonymous
Location: ActonStarParty
(42.4766°N, 71.4538°W)
Time: 19:55:01
(UTC-04:00)
Language:

Cosmos 1300 - Orbit

View from above orbital plane
View from above orbital plane
View from above satellite
View from above satellite

Ground track
Ground track

The orbit data is extracted from the following two-line orbital elements,

1 12785U 81082A   14232.45030071  .00001573  00000-0  91428-4 0  7895
2 12785 082.5087 010.4829 0001453 173.1028 246.3577 15.11426563795632
Epoch (UTC): 20 August 2014 10:48:25
Eccentricity: 0.0001453
inclination: 82.5087°
perigee height: 531 km
apogee height: 533 km
right ascension of ascending node: 10.4829°
argument of perigee: 173.1028°
revolutions per day: 15.11426563
mean anomaly at epoch: 246.3577°
orbit number at epoch: 79563

The dashed part of the orbit path shows where the satellite is in the earth's shadow,  

DLR